This is the latest recevied weather packets stored in our database for station/object NN5DX-12. If no packets are shown the sender has not sent any weather packets the latest 10 day(s).
| Time | Temp. | Humidity | Pressure | Rain* | Wind** | Luminosity | Snow |
|---|---|---|---|---|---|---|---|
| 1778127616 | -1.67° C | 70% | 1020.1 hPa | 0 mm | - | - | - |
| 1778127316 | -1.67° C | 71% | 1020 hPa | 0 mm | - | - | - |
| 1778127016 | -2.22° C | 74% | 1020.1 hPa | 0 mm | - | - | - |
| 1778126716 | -2.22° C | 77% | 1019.9 hPa | 0 mm | - | - | - |
| 1778126417 | -2.78° C | 80% | 1019.2 hPa | 0 mm | - | - | - |
| 1778126116 | -3.33° C | 84% | 1019.3 hPa | 0 mm | - | - | - |
| 1778125816 | -3.33° C | 86% | 1019.3 hPa | 0 mm | - | - | - |
| 1778125516 | -3.33° C | 86% | 1019.4 hPa | 0 mm | - | - | - |
| 1778125217 | -2.78° C | 84% | 1019.3 hPa | 0 mm | - | - | - |
| 1778124916 | -2.78° C | 83% | 1019.3 hPa | 0 mm | - | - | - |
| 1778124616 | -2.78° C | 84% | 1019.3 hPa | 0 mm | - | - | - |
| 1778124316 | -2.78° C | 85% | 1019.3 hPa | 0 mm | - | - | - |
| 1778124017 | -2.22° C | 84% | 1019.8 hPa | 0 mm | - | - | - |
| 1778123717 | -2.22° C | 83% | 1019.8 hPa | 0 mm | - | - | - |
| 1778123416 | -2.22° C | 82% | 1019.6 hPa | 0 mm | - | - | - |
| 1778123116 | -2.22° C | 83% | 1019.6 hPa | 0 mm | - | - | - |
| 1778122817 | -1.67° C | 82% | 1019.7 hPa | 0 mm | - | - | - |
| 1778122516 | -2.22° C | 84% | 1019.6 hPa | 0 mm | - | - | - |
| 1778122216 | -2.78° C | 88% | 1019.1 hPa | 0 mm | - | - | - |
| 1778121917 | -2.78° C | 89% | 1019.1 hPa | 0 mm | - | - | - |
| 1778121616 | -2.78° C | 89% | 1018.9 hPa | 0 mm | - | - | - |
| 1778121316 | -2.22° C | 89% | 1019.5 hPa | 0 mm | - | - | - |
| 1778121016 | -2.22° C | 88% | 1019.4 hPa | 0 mm | - | - | - |
| 1778120716 | -1.67° C | 87% | 1019.3 hPa | 0 mm | - | - | - |
| 1778120416 | -1.67° C | 87% | 1019.2 hPa | 0 mm | - | - | - |
* Rain latest hour (hover to see other rain measurements)
** Current wind speed in m/s (hover to see current wind gust speed)